Content
SEND FEEDBACK

Daily
Averages
Monthly
Summary
Germany

WUNSTORF, GERMANY


Home > Europe > Germany
Elevation: 230 feet     Latitude: 52 27N     Longitude: 009 26E

WEATHER
 
SELECT A DAY
Number of Records: 32,133;   Date Range: 11/3/98 - 10/21/14
 
SHARE

PRINT THIS DATA

[ ← Previous Day ]
WEATHER ALMANAC - JANUARY 31, 2013
[ Next Day → ]
[ °C ]   °F
Weather ElementAverageHighLow
Temperature44.1 °F46.4 °F (12:20 pm)41 °F (3:20 pm)
Dewpoint35.8 °F37.4 °F (1:20 am)33.8 °F (2:20 am)
Humidity73.2 %87 % (3:20 pm)66 % (2:20 am)
Barometer29.73 in29.83 in (6:20 am)29.62 in (3:20 pm)
Wind Speed20.6 mph24.2 mph (3:20 am)
Wind Gust36.8 mph (3:20 pm)
Weather ElementAverage
Visibility6.1 mi
Wind DirectionWSW (251.3 °)

Weather ElementTotal
Precipitation---
Heating Degree Days21.3 (Base 65)
Averaged from 23 records on January 31, 2013
WEATHER CONDITIONS BREAKOUT
WIND DIRECTION BREAKOUT
WEATHER BY HOUR - JANUARY 31, 2013
[ °C ]   °F
Local TimeTemperatureDewpointHumidityBarometerVisibilityWind DirectionWind SpeedGust SpeedPrecipitationEventsConditions
1:20 AM44.6 °F37.4 °F76 %29.74 in6.2 miWest (260°)23.0 mphPartly Cloudy
2:20 AM44.6 °F33.8 °F66 %29.77 in6.2 miWest (260°)18.4 mphScattered Clouds
3:20 AM44.6 °F33.8 °F66 %29.80 in6.2 miWest (260°)24.2 mph35.7 mphPartly Cloudy
4:20 AM44.6 °F33.8 °F66 %29.80 in6.2 miWest (260°)23.0 mph34.5 mphMostly Cloudy
5:20 AM44.6 °F35.6 °F71 %29.80 in6.2 miWest (260°)23.0 mph35.7 mphMostly Cloudy
6:20 AM44.6 °F33.8 °F66 %29.83 in6.2 miWest (260°)23.0 mphMostly Cloudy
7:20 AM42.8 °F35.6 °F76 %29.83 in6.2 miWest (260°)21.9 mph33.4 mphMostly Cloudy
8:20 AM42.8 °F35.6 °F76 %29.83 in6.2 miWSW (240°)20.7 mphMostly Cloudy
9:20 AM42.8 °F35.6 °F76 %29.83 in6.2 miWSW (240°)16.1 mph28.8 mphMostly Cloudy
10:20 AM44.6 °F35.6 °F71 %29.77 in6.2 miWSW (240°)18.4 mphMostly Cloudy
11:20 AM44.6 °F35.6 °F71 %29.77 in6.2 miWSW (240°)20.7 mphMostly Cloudy
12:20 PM46.4 °F35.6 °F66 %29.74 in6.2 miWSW (240°)19.6 mphMostly Cloudy
1:20 PM44.6 °F37.4 °F76 %29.68 in6.2 miWSW (240°)23.0 mph35.7 mphRainLight Rain
2:20 PM42.8 °F37.4 °F81 %29.68 in6.2 miWSW (240°)20.7 mph32.2 mphRainLight Rain
3:20 PM41.0 °F37.4 °F87 %29.62 in5.0 miSW (230°)23.0 mph36.8 mphRainLight Rain
4:20 PM42.8 °F37.4 °F81 %29.62 in6.2 miWSW (240°)21.9 mph35.7 mphRainLight Rain
5:20 PM42.8 °F37.4 °F81 %29.62 in6.2 miWSW (250°)17.3 mphMostly Cloudy
6:20 PM44.6 °F37.4 °F76 %29.62 in6.2 miWest (260°)19.6 mph31.1 mphMostly Cloudy
7:20 PM44.6 °F37.4 °F76 %29.65 in6.2 miWest (260°)17.3 mphMostly Cloudy
8:20 PM44.6 °F35.6 °F71 %29.68 in6.2 miWest (260°)20.7 mph32.2 mphMostly Cloudy
9:20 PM44.6 °F35.6 °F71 %29.68 in6.2 miWest (260°)18.4 mphMostly Cloudy
10:20 PM44.6 °F35.6 °F71 %29.68 in6.2 miWest (260°)19.6 mphMostly Cloudy
11:20 PM44.6 °F33.8 °F66 %29.68 in6.2 miWest (260°)19.6 mphMostly Cloudy
Hourly data recorded from ETNW, located miles away from Wunstorf, Germany







STORIES FROM OUR PARTNERS